Weather History for Trabzon, Turkey

Change the Weather History Date:

Saturday, February 16, 2013

  Actual Average Record
Temperature  
Mean Temperature 45 °F -  
Max Temperature 48 °F 50 °F 55 °F (2005)
Min Temperature 42 °F 40 °F 32 °F (2004)
Degree Days  
Heating Degree Days 20    
Moisture  
Dew Point 42 °F    
Average Humidity 81    
Maximum Humidity 93    
Minimum Humidity 71    
Precipitation  
Precipitation 0.04 in - - ()
Sea Level Pressure  
Sea Level Pressure 29.98 in    
Wind  
Wind Speed 10 mph ()    
Max Wind Speed 25 mph    
Max Gust Speed 18 mph    
Visibility 6.2 miles    
Events Rain    
Averages and records for this station are not official NWS values.
T = Trace of Precipitation, MM = Missing Value Source: Averaged Metar Reports

Daily Weather History Graph

Daily Weather History Graph

Search for Another Location

Airport:

Trip Planner

Search our weather history database for the weather conditions in past years. The results will help you decide how hot, cold, wet, or windy it might be!

Date:

Astronomy

Feb. 16, 2013 Rise Set
Actual Time 6:14 AM EET 4:56 PM EET
Civil Twilight 5:45 AM EET 5:24 PM EET
Nautical Twilight 5:13 AM EET 5:56 PM EET
Astronomical Twilight 4:41 AM EET 6:28 PM EET
Moon 9:09 AM EET (2/16) 11:37 PM EET (2/16)
Length of Visible Light 11h 38m
Length of Day
10h 42m
Waxing Crescent, 36% of the Moon is Illuminated
Feb 16
Waxing Crescent
Feb 17
First Quarter
Feb 25
Full
Mar 4
Last Quarter
Mar 11
New

Hourly Weather History & Observations

Time (EET) Temp. Windchill Dew Point Humidity Pressure Visibility Wind Dir Wind Speed Gust Speed Precip Events Conditions
12:20 AM 53.6 °F - 44.6 °F 72% 29.80 in 6.2 mi ESE 6.9 mph - N/A Rain Light Rain Showers
12:50 AM 53.6 °F - 46.4 °F 77% 29.80 in 6.2 mi Calm Calm - N/A Rain Light Rain Showers
1:20 AM 51.8 °F - 46.4 °F 82% 29.80 in 6.2 mi WSW 5.8 mph - N/A Rain Light Rain Showers
1:50 AM 51.8 °F - 46.4 °F 82% 29.80 in 6.2 mi Calm Calm - N/A   Mostly Cloudy
2:00 AM 52 °F - 46 °F 73% 29.82 in 6 mi Calm Calm - - Rain Light Rain Showers
2:20 AM 50.0 °F - 44.6 °F 82% 29.83 in 6.2 mi West 11.5 mph - N/A   Mostly Cloudy
2:50 AM 50.0 °F - 46.4 °F 87% 29.83 in 6.2 mi West 12.7 mph - N/A   Mostly Cloudy
3:20 AM 48.2 °F - 46.4 °F 93% 29.83 in 6.2 mi West 11.5 mph - N/A   Mostly Cloudy
3:50 AM 48.2 °F - 46.4 °F 93% 29.83 in 6.2 mi West 10.4 mph - N/A   Mostly Cloudy
4:20 AM 48.2 °F - 46.4 °F 93% 29.86 in 6.2 mi West 6.9 mph - N/A   Mostly Cloudy
4:50 AM 48.2 °F - 44.6 °F 87% 29.86 in 6.2 mi West 9.2 mph - N/A   Mostly Cloudy
5:20 AM 50.0 °F - 44.6 °F 82% 29.86 in 6.2 mi West 8.1 mph - N/A   Mostly Cloudy
5:50 AM 50.0 °F - 44.6 °F 82% 29.89 in 6.2 mi West 10.4 mph - N/A   Mostly Cloudy
6:20 AM 50.0 °F - 44.6 °F 82% 29.89 in 6.2 mi West 10.4 mph - N/A   Mostly Cloudy
6:50 AM 50.0 °F - 44.6 °F 82% 29.89 in 6.2 mi WNW 13.8 mph - N/A   Mostly Cloudy
7:20 AM 50.0 °F - 44.6 °F 82% 29.92 in 6.2 mi West 12.7 mph - N/A   Mostly Cloudy
7:50 AM 48.2 °F - 44.6 °F 87% 29.92 in 6.2 mi WNW 15.0 mph - N/A Rain Light Rain Showers
8:00 AM 49 °F - 45 °F 81% 29.94 in 6 mi WNW 15.0 mph - - Rain Light Rain Showers
8:20 AM 48.2 °F - 44.6 °F 87% 29.92 in 6.2 mi WNW 16.1 mph - N/A Rain Light Rain Showers
8:50 AM 48.2 °F - 44.6 °F 87% 29.95 in 6.2 mi West 16.1 mph - N/A   Mostly Cloudy
9:20 AM 48.2 °F - 42.8 °F 82% 29.95 in 6.2 mi WNW 19.6 mph - N/A   Mostly Cloudy
9:50 AM 48.2 °F - 42.8 °F 82% 29.95 in 6.2 mi West 17.3 mph - N/A   Mostly Cloudy
10:20 AM 48.2 °F - 42.8 °F 82% 29.95 in 6.2 mi WNW 17.3 mph - N/A   Mostly Cloudy
10:50 AM 46.4 °F 39.2 °F 42.8 °F 87% 29.98 in 6.2 mi WNW 18.4 mph - N/A   Mostly Cloudy
11:20 AM 46.4 °F 38.7 °F 42.8 °F 87% 29.98 in 6.2 mi WNW 20.7 mph - N/A Rain Light Rain Showers
11:50 AM 46.4 °F 39.2 °F 42.8 °F 87% 29.98 in 6.2 mi WNW 18.4 mph - N/A   Mostly Cloudy
12:20 PM 46.4 °F 39.0 °F 41.0 °F 81% 29.98 in 6.2 mi WNW 19.6 mph - N/A Rain Light Rain Showers
12:50 PM 46.4 °F 38.3 °F 42.8 °F 87% 29.98 in 6.2 mi WNW 23.0 mph - N/A Rain Light Rain Showers
1:20 PM 46.4 °F 39.5 °F 41.0 °F 81% 29.98 in 6.2 mi WNW 17.3 mph - N/A Rain Light Rain Showers
1:50 PM 46.4 °F 39.2 °F 41.0 °F 81% 30.01 in 6.2 mi WNW 18.4 mph - N/A Rain Light Rain Showers
2:00 PM 46 °F - 40 °F 74% 30.01 in 6 mi WNW 18.4 mph - - Rain Light Rain Showers
2:20 PM 46.4 °F 40.4 °F 41.0 °F 81% 30.01 in 6.2 mi WNW 13.8 mph - N/A Rain Light Rain Showers
2:50 PM 46.4 °F 39.2 °F 39.2 °F 76% 30.01 in 6.2 mi WNW 18.4 mph - N/A Rain Light Rain Showers
3:20 PM 46.4 °F 37.9 °F 39.2 °F 76% 30.01 in 6.2 mi WNW 25.3 mph - N/A Rain Light Rain Showers
3:50 PM 46.4 °F 38.5 °F 37.4 °F 71% 30.04 in 6.2 mi WNW 21.9 mph - N/A Rain Light Rain Showers
4:20 PM 46.4 °F 39.2 °F 37.4 °F 71% 30.04 in 6.2 mi WNW 18.4 mph - N/A   Mostly Cloudy
4:50 PM 46.4 °F 40.1 °F 39.2 °F 76% 30.04 in 6.2 mi WNW 15.0 mph - N/A Rain Light Rain Showers
5:20 PM 46.4 °F 40.4 °F 39.2 °F 76% 30.06 in 6.2 mi WNW 13.8 mph - N/A Rain Light Rain Showers
5:50 PM 46.4 °F 41.1 °F 39.2 °F 76% 30.06 in 6.2 mi West 11.5 mph - N/A Rain Light Rain Showers
6:20 PM 46.4 °F 40.7 °F 39.2 °F 76% 30.09 in 6.2 mi WNW 12.7 mph - N/A Rain Light Rain Showers
6:50 PM 46.4 °F 44.3 °F 39.2 °F 76% 30.09 in 6.2 mi South 4.6 mph - N/A Rain Light Rain Showers
7:20 PM 46.4 °F 43.5 °F 39.2 °F 76% 30.09 in 6.2 mi East 5.8 mph - N/A Rain Light Rain Showers
7:50 PM 44.6 °F - 39.2 °F 81% 30.12 in 6.2 mi Calm Calm - N/A Rain Light Rain Showers
8:00 PM 45 °F - 39 °F 72% 30.13 in 6 mi Calm Calm - - Rain Light Rain Showers
8:20 PM 44.6 °F - 39.2 °F 81% 30.12 in 6.2 mi Variable 1.2 mph - N/A Rain Light Rain Showers
8:50 PM 44.6 °F 42.2 °F 39.2 °F 81% 30.12 in 6.2 mi SE 4.6 mph - N/A Rain Light Rain Showers
9:20 PM 44.6 °F 38.8 °F 41.0 °F 87% 30.12 in 6.2 mi NW 11.5 mph - N/A Rain Light Rain Showers
9:50 PM 44.6 °F 40.2 °F 39.2 °F 81% 30.12 in 6.2 mi WNW 8.1 mph - N/A Rain Light Rain Showers
10:20 PM 44.6 °F 43.1 °F 39.2 °F 81% 30.12 in 6.2 mi West 3.5 mph - N/A Rain Light Rain Showers
10:50 PM 44.6 °F 41.4 °F 39.2 °F 81% 30.12 in 6.2 mi SSE 5.8 mph 18.4 mph N/A Rain Light Rain Showers
11:20 PM 42.8 °F 40.1 °F 39.2 °F 87% 30.12 in 6.2 mi SE 4.6 mph - N/A Rain Light Rain Showers
11:50 PM 44.6 °F 43.1 °F 39.2 °F 81% 30.12 in 6.2 mi SSE 3.5 mph - N/A   Mostly Cloudy